Location: Bittkow
(50.3000°N, 19.0000°E)
Time: 16:44:05
(UTC+00:00)

Cosmos 1777 Rocket - Pass Details

Date: 19 September 2020
Orbit: 759 x 775 km, 74.0° (Epoch: 31 October)

Event Time Altitude Azimuth Distance (km) Brightness Sun altitude
Rises 01:20:45 0° 337° (NNW) 3,247 7.5 -27.7°
Reaches altitude 10° 01:23:10 10° 340° (NNW) 2,314 6.7 -27.5°
Maximum altitude 01:28:24 69° 63° (ENE) 820 4.2 -26.8°
Enters shadow 01:32:18 18° 145° (SE) 1,808 5.9 -26.4°
